Simultaneous Nadir Overpasses (SNOs) Predictions

Prediction of SNOs over PacNW region [( 10.00, 139.50) to ( 22.70, 165.60)] between AQUA and NPP Satellites:

Table of predicted SNOs over PacNW region for the next 30.0 days since TLE Epoch: 1/19/2013
Index Date (AQUA) Time (AQUA) AQUA Lat,Lon Date (NPP) Time (NPP) NPP Lat,Lon Distance(km) Time Diff (sec)
1 01/21/2013 15:11:08 18.82, 158.88 01/21/2013 15:10:04 19.29, 156.36 270.46 64
2 01/29/2013 15:59:26 22.62, 147.44 01/29/2013 15:59:58 23.28, 144.60 300.68 32
3 02/06/2013 15:10:17 21.52, 159.56 02/06/2013 15:09:58 22.06, 156.88 282.41 19
4 02/14/2013 15:59:28 22.58, 147.45 02/14/2013 16:00:52 23.26, 144.38 323.04 84




NCC Satellite Simultaneous Nadir Overpasses (SNOs) Prediction Service
